SL-24 R/B

Satellite information

Favourite Embed

Satellite Type and Status

ROCKET BODYIN ORBIT

Key statistics

Satellite SL-24 R/B at a glance.

Uptime

6537

Days in orbit

Revolutions

≈ 14.5

Per day

Orbit

SSO

Sun Synchronous Orbit

Inclination

97.4

Latest

Satellite identification and parameters

Extended collection of information and parameters for SL-24 R/B.

Object identification

Identified? True

Debris? False

Object name: SL-24 R/B

International designator: 2007-026B

Object number (NORAD): 31699

Object ID (CCSDS): 31699

Country: COMMONWEALTH OF INDEPENDENT STATES (CIS)

Current information (Y/N): Y

RCS size: LARGE

Orbital parameters

Period: 99.648 minutes

Inclination: 97.4317 deg

SMA: 7119.902 km

Apoapsis: 981.042 km

Periapsis: 502.491 km

RAAN: 142.0643 deg

Eccentricy: 0.0336066

Argument of periapsis: 179.8935 deg

Mean anomaly: 353.6111 deg

Mean motion: 14.4507961 rev/day

Mean motion (dot): 0.00000794 rev/day2

B* drag term: 0.00011998 1/REarth

Two-line elements (TLE)

Creation date: May 8, 2025, 3:01 a.m.

Reference frame: TEME

Reference center: EARTH

Epoch: May 7, 2025, 6:48 p.m. UTC

TLE line 0: 0 SL-24 R/B

TLE line 1: 1 31699U 07026B 25127.78353604 .00000794 00000-0 11998-3 0 9997

TLE line 2: 2 31699 97.4317 142.0643 0336066 179.8935 353.6111 14.45079610940951

Live tracking on map

Real-time ground track for satellite SL-24 R/B.

In-orbit conjunctions

A list of the most updated potential collisions computed for object SL-24 R/B.

Target Orbit TCA Probability of collision Miss distance Type
FENGYUN 1C DEB SSO 2024-07-03 03:12:27 0.0002099335 95.0 (m) DEBRIS

Associated space launch

German Earth observation satellite

SL-24 R/B was lifted into orbit during the mission ‘Dnepr | TerraSAR-X’, on board a Dnepr space rocket.

The launch took place on June 15, 2007, 2:14 a.m. from 109/95.

For more information about the launch, click the button.

Launch to space Dnepr | TerraSAR-X
Dnepr | TerraSAR-X

Agency: N/A

Status: Launch Successful

Launch date: June 15, 2007, 2:14 a.m. UTC

Rocket: Dnepr

Launch pad: 109/95

Location: Baikonur Cosmodrome, Republic of Kazakhstan

...

Latest news about this satellite

There are no fresh news available about this satellite. Check back as we update our databases every day.


Newsletter sign-up

Weekly statistics, charts and insights to help you stay on top of the space industry.